Zurück zum Katalog

FENGYUN 1C DEB

LostSSO
NORAD 32092·DEBRIS·🇨🇳 China

Gestartet May 10, 1999 von Taiyuan Satellite Launch Center

Loading…

Nächste Überflüge (nächste 24 Stunden)

TLE

VeraltetSource: Space-Track

Epoche: Sep 6, 2022, 23:46 UTC

1 32092U 99025CQJ 22249.99045709  .00001971  00000-0  97166-3 0  9993
2 32092  98.8371 322.6238 0034427 299.0330  60.7397 14.18365333779604

Verfolge FENGYUN 1C DEB in Echtzeit mit AllMySat

Download on the App Store